sat.trackr.live / text

‹ back to catalog

STARLINK-31358

NORAD 58977 · 2024-031N

PAYLOAD ACTIVE UNKNOWN

§ Identity

Operator
Country
US
Launch date
2024-02-15
Launch site
AFWTR
Launch vehicle
Mass (kg)
RCS (m²)

Purposes: comms

External: N2YO · Heavens-Above · Gunter

§ Orbital elements

Epoch: 2026-05-25T03:35:32.784864Z

Period
94.11 min
Inclination
53.1609°
Eccentricity
0.0000706
Mean motion
15.30192743 rev/d
Perigee alt
474.8 km
Apogee alt
475.7 km
Semi-major
6,853.4 km
B*
-2.0822e-6
RAAN
301.2415°
Arg perigee
73.3004°
Mean anomaly
286.8074°
Rev number
12,822

§ Raw data

STARLINK-313581 58977U 24031N   26145.14968501 -.00000420  00000+0 -20822-5 0  99942 58977  53.1609 301.2415 0000706  73.3004 286.8074 15.30192743128223

JSON: /api/v1/satellites/58977 · /tle

For live sub-satellite position, see the globe view (requires WebGL).

§ Visibility from observer

Set your observer location to see the next 7 days of passes ≥ 10°. The values pass through the URL so the page stays shareable.

No JS? Fill the form by hand. The geolocation button needs JavaScript.